User: anonymous
Location: Fort Hays State University
(38.8712°N, 99.3432°W)
Time: 14:09:06
(UTC-05:00)
Language:

ALOS - Orbit

View from above orbital plane
View from above orbital plane
View from above satellite
View from above satellite

Ground track
Ground track

The orbit data is extracted from the following two-line orbital elements,

1 28931U 06002A   14243.83465760  .00000663  00000-0  14348-3 0   285
2 28931 097.9739 299.2343 0000704 073.5567 286.5687 14.61257095458363
Epoch (UTC): 31 August 2014 20:01:54
Eccentricity: 0.0000704
inclination: 97.9739°
perigee height: 688 km
apogee height: 689 km
right ascension of ascending node: 299.2343°
argument of perigee: 73.5567°
revolutions per day: 14.61257095
mean anomaly at epoch: 286.5687°
orbit number at epoch: 45836

The dashed part of the orbit path shows where the satellite is in the earth's shadow,  

DLR